Regional Weather Roundup
Issued by NWS Northern Indiana

Home | Current Version | Previous Version | Graphics & Text | Print | Product List | Glossary On
Versions: 1 2 3 4 5 6 7 8 9 10 11 12 13 14 15 16 17 18 19 20 21 22 23 24 25 26 27 28 29 30 31 32 33 34 35 36 37 38 39 40 41 42 43 44 45 46 47 48 49 50
000
ASUS43 KIWX 250510
RWRIWX

KIWX WEATHER ROUNDUP
NATIONAL WEATHER SERVICE NORTHERN INDIANA
100 AM EDT WED MAY 25 2016

NOTE: "FAIR" INDICATES FEW OR NO CLOUDS BELOW 12,000 FEET WITH NO
SIGNIFICANT WEATHER AND/OR OBSTRUCTIONS TO VISIBILITY.

* THESE STATIONS ARE NOT UNDER NWS QUALITY CONTROL. THEY ALSO MAY NOT
  REPORT WEATHER SUCH AS PRECIPITATION OR FOG.

INZ001>027-250600-
NORTHERN INDIANA

CITY           SKY/WX    TMP DP  RH WIND       PRES   REMARKS
GARY*          CLOUDY    75  62  64 S6        30.00R
VALPARAISO     PTCLDY    71  55  56 S6        30.01S
MICHIGAN CITY* MOCLDY    72  54  53 S9        30.00S
LAPORTE*       CLOUDY    73  54  52 S5        30.01S
KNOX*          CLEAR     68  43  40 S6        30.01S
SOUTH BEND     CLOUDY    68  52  56 SW7       30.01F
GOSHEN         CLEAR     67  49  52 S7        30.02F
MONTICELLO*    CLEAR     70  49  47 S5        30.02S
LOGANSPORT*    CLEAR     64  54  68 S6        30.04F
ROCHESTER*     CLEAR     72  55  56 S5        30.04S
WARSAW*        PTCLDY    66  52  59 CALM      30.04S
ANGOLA*        CLEAR     61  52  72 CALM      30.04S
FORT WAYNE     PTCLDY    63  49  60 S7        30.05F
HUNTINGTON*    CLEAR    N/A N/A N/A SW3       30.05S
PERU/GRISSOM   CLEAR     64  54  68 S6        30.03F HAZE
MARION*        CLEAR     65  53  65 S3        30.06F

$$
INZ028>050-250600-
CENTRAL INDIANA

CITY           SKY/WX    TMP DP  RH WIND       PRES   REMARKS
LAFAYETTE      CLOUDY    68  54  60 S3        30.02F
KOKOMO*        CLEAR     63  52  67 S6        30.05F
MUNCIE*        CLEAR     69  51  52 S7        30.06F
INDIANAPOLIS   MOCLDY    66  55  67 S3        30.05S

$$
MIZ043>046-050>051-056>058-064>065-071>073-077>080-250600-
SOUTHWEST LOWER MICHIGAN

CITY           SKY/WX    TMP DP  RH WIND       PRES   REMARKS
BATTLE CREEK   CLOUDY    67  50  54 S10       30.01F
BENTON HARBOR  CLOUDY    73  53  49 S7        29.98F
COLDWATER*     CLEAR     69  47  45 S3        30.02F
HILLSDALE*     CLEAR     68  41  38 S5        30.04F
HOLLAND        MOCLDY    70  53  54 W5        29.98F
GRAND RAPIDS   PTCLDY    70  52  52 S8        29.98F
KALAMAZOO      PTCLDY    69  51  52 S6        30.01S
STURGIS*       CLEAR     66  50  55 S5        30.01F
THREE RIVERS*  FAIR      66  51  58 S3        30.02S

$$
OHZ001>008-015>018-024>025-250600-
NORTHWEST OHIO

CITY           SKY/WX    TMP DP  RH WIND       PRES   REMARKS
WAUSEON*         N/A     66  48  52 SW8       30.04S
DEFIANCE       CLEAR     64  45  49 S3        30.04S
FINDLAY        CLEAR     63  45  51 S10       30.05S
TOLEDO EXPRESS CLEAR     66  43  43 SW6       30.03F
TOLEDO METCALF CLEAR     65  42  43 SW6       30.05R
LIMA           CLEAR     65  48  54 S8        30.07S

$$
AND FOR LAKE MICHIGAN COASTAL AND OPEN LAKE BUOY OBSERVATIONS

STATION/POSITION TEMP    WIND        PRES    VSBY  WAVE
                 AIR SEA DIR/SP/G                  HT/PER
                 (F)     (DEG/KT/KT) (MB)    (MI)  (FT/S)
CALUMET HARBOR    77     180/  8/ 12 1014.6F
MICHIGAN CITY     76     160/ 12/ 16   N/A
BURNS HARBOR      75     180/  9/ 13 1015.9S
SAINT JOSEPH      77     170/ 11/ 16 1015.9F
SOUTH LAKE BUOY   61 49  150/  6/  8 1014.5F         0
4 MI NW BRIDGMAN  65 59  190/  8/ 10   N/A           1/ 2
MICHIGAN CITY     68 57  200/ 10/ 12   N/A           1

$$
&&



USA.gov is the U.S. government's official web portal to all federal, state and local government web resources and services.